Weather History for KPTS - December, 2012

Change the Weather History Date:

Saturday, December 22, 2012

  Actual Average (KJLN) Record (KJLN)
Temperature  
Mean Temperature 46 °F 36 °F  
Max Temperature 60 °F 45 °F 71 °F (1982)
Min Temperature 31 °F 26 °F -15 °F (1989)
Degree Days  
Heating Degree Days 20 29  
Month to date heating degree days 592  
Since 1 July heating degree days 1349  
Cooling Degree Days 0 0  
Month to date cooling degree days 0  
Year to date cooling degree days 1698  
Moisture  
Dew Point 21 °F    
Average Humidity 39    
Maximum Humidity 61    
Minimum Humidity 20    
Precipitation  
Precipitation 0.00 in 0.09 in 2.29 in (1988)
Month to date precipitation 2.11  
Year to date precipitation 45.84  
Sea Level Pressure  
Sea Level Pressure 30.06 in    
Wind  
Wind Speed 9 mph (SSW)    
Max Wind Speed 20 mph    
Max Gust Speed 28 mph    
Visibility 10 miles    
Events      
T = Trace of Precipitation, MM = Missing Value Source: NWS Daily Summary

Daily Weather History Graph

Daily Weather History Graph

Search for Another Location

Airport or City:

Trip Planner

Search our weather history database for the weather conditions in past years. The results will help you decide how hot, cold, wet, or windy it might be!

Date:

Astronomy

Dec. 22, 2012 Rise Set
Actual Time 7:30 AM CST 5:05 PM CST
Civil Twilight 7:01 AM CST 5:34 PM CST
Nautical Twilight 6:28 AM CST 6:07 PM CST
Astronomical Twilight 5:56 AM CST 6:39 PM CST
Moon 1:19 PM CST (12/22) 2:20 AM CST (12/22)
Length of Visible Light 10h 33m
Length of Day
9h 34m
Waxing Gibbous, 74% of the Moon is Illuminated
Dec 22
Waxing Gibbous
Dec 28
Full
Jan 4
Last Quarter
Jan 11
New
Jan 18
First Quarter

Hourly Weather History & Observations

Time (CST) Temp. Windchill Dew Point Humidity Pressure Visibility Wind Dir Wind Speed Gust Speed Precip Events Conditions
12:15 AM 35.6 °F 32.8 °F 19.6 °F 52% 30.22 in 10.0 mi SE 3.5 mph - N/A   Clear
12:35 AM 35.6 °F 30.7 °F 19.6 °F 52% 30.21 in 10.0 mi SSE 5.8 mph - N/A   Clear
12:55 AM 34.9 °F 30.8 °F 20.1 °F 55% 30.21 in 10.0 mi SSE 4.6 mph - N/A   Clear
1:15 AM 35.6 °F 30.7 °F 20.3 °F 54% 30.20 in 10.0 mi SSE 5.8 mph - N/A   Clear
1:35 AM 33.4 °F 28.1 °F 19.4 °F 56% 30.19 in 10.0 mi SSE 5.8 mph - N/A   Clear
1:55 AM 33.4 °F 28.1 °F 19.2 °F 56% 30.19 in 10.0 mi South 5.8 mph - N/A   Clear
2:15 AM 33.8 °F 29.6 °F 19.2 °F 55% 30.19 in 10.0 mi SSE 4.6 mph - N/A   Clear
2:35 AM 32.9 °F 29.8 °F 19.0 °F 57% 30.19 in 10.0 mi SSE 3.5 mph - N/A   Clear
2:55 AM 32.4 °F 29.1 °F 19.0 °F 58% 30.18 in 10.0 mi South 3.5 mph - N/A   Clear
3:15 AM 32.5 °F 29.3 °F 19.0 °F 58% 30.18 in 10.0 mi South 3.5 mph - N/A   Clear
3:35 AM 32.4 °F 27.9 °F 19.2 °F 58% 30.18 in 10.0 mi South 4.6 mph - N/A   Clear
3:55 AM 32.7 °F 27.3 °F 19.6 °F 58% 30.17 in 10.0 mi South 5.8 mph - N/A   Clear
4:15 AM 32.9 °F 27.5 °F 19.8 °F 59% 30.16 in 10.0 mi South 5.8 mph - N/A   Clear
4:35 AM 32.5 °F 29.3 °F 19.6 °F 59% 30.16 in 10.0 mi South 3.5 mph - N/A   Clear
4:55 AM 31.8 °F 26.2 °F 18.9 °F 59% 30.16 in 10.0 mi South 5.8 mph - N/A   Clear
5:15 AM 32.7 °F 26.4 °F 19.8 °F 59% 30.16 in 10.0 mi SSW 6.9 mph - N/A   Clear
5:35 AM 32.4 °F 26.9 °F 20.1 °F 61% 30.15 in 10.0 mi SSW 5.8 mph - N/A   Clear
5:55 AM 33.6 °F 28.4 °F 20.1 °F 58% 30.15 in 10.0 mi SSW 5.8 mph - N/A   Clear
6:15 AM 34.9 °F 29.9 °F 20.8 °F 57% 30.14 in 10.0 mi SSW 5.8 mph - N/A   Clear
6:35 AM 35.4 °F 29.7 °F 21.4 °F 57% 30.14 in 10.0 mi South 6.9 mph - N/A   Clear
6:55 AM 33.6 °F 28.4 °F 20.5 °F 59% 30.14 in 10.0 mi South 5.8 mph - N/A   Clear
7:15 AM 35.2 °F 29.5 °F 21.4 °F 57% 30.14 in 10.0 mi SSW 6.9 mph - N/A   Clear
7:35 AM 35.2 °F 29.5 °F 22.5 °F 60% 30.14 in 10.0 mi SSW 6.9 mph - N/A   Clear
7:55 AM 35.6 °F 28.0 °F 22.1 °F 58% 30.13 in 10.0 mi SSW 10.4 mph - N/A   Clear
8:15 AM 36.7 °F 29.4 °F 21.9 °F 55% 30.12 in 10.0 mi SSW 10.4 mph - N/A   Clear
8:35 AM 39.0 °F 32.3 °F 22.1 °F 51% 30.12 in 10.0 mi SSW 10.4 mph - N/A   Clear
8:55 AM 40.6 °F 33.4 °F 21.6 °F 47% 30.12 in 10.0 mi SSW 12.7 mph - N/A   Clear
9:15 AM 42.3 °F 35.5 °F 21.0 °F 43% 30.12 in 10.0 mi SSW 12.7 mph - N/A   Clear
9:35 AM 43.7 °F 36.9 °F 20.8 °F 40% 30.12 in 10.0 mi SSW 13.8 mph 19.6 mph N/A   Clear
9:55 AM 45.0 °F 38.2 °F 20.7 °F 38% 30.12 in 10.0 mi SSW 15.0 mph - N/A   Clear
10:15 AM 47.8 °F - 21.9 °F 36% 30.12 in 10.0 mi SSW 12.7 mph - N/A   Clear
10:35 AM 50.5 °F - 22.3 °F 33% 30.12 in 10.0 mi SSW 15.0 mph - N/A   Clear
10:55 AM 50.9 °F - 20.5 °F 30% 30.11 in 10.0 mi SSW 17.3 mph - N/A   Clear
11:15 AM 51.4 °F - 21.4 °F 31% 30.10 in 10.0 mi SW 12.7 mph - N/A   Clear
11:35 AM 53.1 °F - 22.1 °F 30% 30.08 in 10.0 mi SSW 18.4 mph 23.0 mph N/A   Clear
11:55 AM 54.7 °F - 22.8 °F 29% 30.06 in 10.0 mi SW 16.1 mph 20.7 mph N/A   Clear
12:15 PM 55.8 °F - 23.0 °F 28% 30.05 in 10.0 mi SSW 15.0 mph 20.7 mph N/A   Clear
12:35 PM 56.5 °F - 21.9 °F 26% 30.04 in 10.0 mi SSW 15.0 mph - N/A   Clear
12:55 PM 58.1 °F - 20.8 °F 24% 30.03 in 10.0 mi SW 15.0 mph 25.3 mph N/A   Clear
1:15 PM 58.3 °F - 20.3 °F 23% 30.01 in 10.0 mi SW 16.1 mph 20.7 mph N/A   Clear
1:35 PM 59.5 °F - 20.1 °F 22% 30.00 in 10.0 mi SW 19.6 mph 24.2 mph N/A   Clear
1:55 PM 59.5 °F - 18.1 °F 20% 29.99 in 10.0 mi SW 18.4 mph 27.6 mph N/A   Clear
2:15 PM 60.1 °F - 19.2 °F 21% 29.98 in 10.0 mi SW 16.1 mph 25.3 mph N/A   Clear
2:35 PM 60.1 °F - 19.2 °F 21% 29.97 in 10.0 mi SW 17.3 mph 26.5 mph N/A   Clear
2:55 PM 58.8 °F - 19.2 °F 22% 29.97 in 10.0 mi SSW 13.8 mph 24.2 mph N/A   Clear
3:15 PM 58.3 °F - 19.9 °F 23% 29.96 in 10.0 mi SSW 11.5 mph - N/A   Clear
3:35 PM 58.3 °F - 19.9 °F 23% 29.96 in 10.0 mi SSW 18.4 mph 24.2 mph N/A   Clear
3:55 PM 58.6 °F - 19.6 °F 22% 29.96 in 10.0 mi SSW 18.4 mph 24.2 mph N/A   Clear
4:15 PM 58.3 °F - 19.9 °F 23% 29.96 in 10.0 mi SSW 15.0 mph 23.0 mph N/A   Clear
4:35 PM 57.4 °F - 20.1 °F 24% 29.96 in 10.0 mi SW 13.8 mph 23.0 mph N/A   Clear
4:55 PM 55.8 °F - 19.9 °F 25% 29.96 in 10.0 mi SSW 11.5 mph - N/A   Clear
5:15 PM 55.8 °F - 21.6 °F 27% 29.96 in 10.0 mi SW 11.5 mph - N/A   Clear
5:35 PM 55.8 °F - 21.4 °F 26% 29.96 in 10.0 mi SW 11.5 mph - N/A   Clear
5:55 PM 54.3 °F - 20.5 °F 27% 29.96 in 10.0 mi SW 12.7 mph - N/A   Clear
6:15 PM 54.1 °F - 20.8 °F 27% 29.96 in 10.0 mi SW 12.7 mph - N/A   Clear
6:35 PM 54.1 °F - 21.0 °F 27% 29.96 in 10.0 mi SSW 12.7 mph - N/A   Clear
6:55 PM 53.2 °F - 20.7 °F 28% 29.97 in 10.0 mi SSW 11.5 mph - N/A   Clear
7:15 PM 53.2 °F - 20.1 °F 27% 29.97 in 10.0 mi SW 11.5 mph - N/A   Clear
7:35 PM 53.2 °F - 19.8 °F 27% 29.97 in 10.0 mi SSW 10.4 mph - N/A   Clear
7:55 PM 53.2 °F - 20.7 °F 28% 29.97 in 10.0 mi SW 13.8 mph - N/A   Clear
8:15 PM 53.1 °F - 21.2 °F 29% 29.97 in 10.0 mi SW 13.8 mph 19.6 mph N/A   Clear
8:35 PM 52.7 °F - 21.4 °F 29% 29.97 in 10.0 mi SW 10.4 mph - N/A   Clear
8:55 PM 51.4 °F - 20.8 °F 30% 29.97 in 10.0 mi SW 12.7 mph 17.3 mph N/A   Clear
9:15 PM 51.4 °F - 21.2 °F 31% 29.97 in 10.0 mi SW 12.7 mph - N/A   Clear
9:35 PM 50.9 °F - 21.0 °F 31% 29.97 in 10.0 mi SW 12.7 mph - N/A   Clear
9:55 PM 50.9 °F - 21.4 °F 31% 29.97 in 10.0 mi SW 11.5 mph - N/A   Clear
10:15 PM 50.9 °F - 22.6 °F 33% 29.97 in 10.0 mi SW 11.5 mph - N/A   Clear
10:35 PM 50.9 °F - 23.2 °F 34% 29.97 in 10.0 mi SW 11.5 mph - N/A   Clear
10:55 PM 50.9 °F - 24.4 °F 36% 29.96 in 10.0 mi SW 9.2 mph - N/A   Clear
11:15 PM 50.9 °F - 26.1 °F 38% 29.96 in 10.0 mi SW 8.1 mph - N/A   Clear
11:35 PM 49.3 °F - 26.4 °F 41% 29.96 in 10.0 mi SSW 6.9 mph - N/A   Clear
11:55 PM 47.1 °F - 26.2 °F 44% 29.95 in 10.0 mi SW 5.8 mph - N/A   Clear